Location: Kawakawa
(35.3830°S, 174.0670°E)
Time: 16:30:18
(UTC+13:00)

A-11 Canister half - Pass Details

Date: 14 December 2019
Orbit: 1525 x 1684 km, 47.3° (Epoch: 26 January)

Event Time Altitude Azimuth Distance (km) Brightness Sun altitude
Rises 21:43:24 0° 250° (WSW) 4,693 13.0 -12.4°
Reaches altitude 10° 21:46:44 10° 242° (WSW) 3,709 12.4 -13.0°
Maximum altitude 21:55:26 41° 174° (S) 2,120 10.0 -14.3°
Drops below altitude 10° 22:04:14 10° 105° (ESE) 3,757 10.7 -15.6°
Sets 22:07:38 0° 98° (E) 4,759 11.2 -16.1°
